CYGFM03 (41891 NORAD) Tracking and Keplerian Element Data

This shows tracking and keplerian element data for the satellite.

Feedback or suggestion? Click here.




ElementValue
Catalog41891
NameCYGFM03
Epoch Orbit13029
Epoch Day113.50340951
Epoch Year2019
RAAN149.2391
Inclination34.9544
Eccentricity0.0013709
Argument of Perigee253.2871
Mean Anonmoly106.6336
Mean Motion15.14860552
Decay Rate3.16E-06
L11 41891U 16078H 19113.50340951 .00000316 00000-0 18314-4 0 9998
L22 41891 34.9544 149.2391 0013709 253.2871 106.6336 15.14860552130298

Live tracking and technical data element details for CYGFM03 (NORAD 41891). CYGFM03 can be tracked NOW for your location showing map with azimuth and elevation plus other details from your city location.

Track the satellite on the map from your city or location and see movement details for azimuth, elevation, latitude, longitude, range, height, and movement on the map or in text.







IsCatalogInMostPopularTable: catalog: 41891, numindb: 171
Update: records affected: 1



GetName: 41891 CYGFM03

Hit Count: updated at: Wed, 24 Apr 2019 17:47:17 GMT